Location: Epalinges
(46.5518°N, 6.6683°E)
Time: 02:45:12
(UTC+00:00)

Cosmos 1943 - Pass Details

Date: 20 June 2021
Orbit: 832 x 851 km, 71.0° (Epoch: 04 August)

Event Time Altitude Azimuth Distance (km) Brightness Sun altitude
Exits shadow 01:33:38 18° 238° (WSW) 1,941 4.6 -15.0°
Maximum altitude 01:37:32 45° 304° (NW) 1,136 3.9 -14.7°
Drops below altitude 10° 01:42:57 10° 17° (NNE) 2,468 6.9 -14.3°
Sets 01:45:32 0° 24° (NNE) 3,409 8.3 -14.0°
